Hovedside
METAR-TAF:

METAR-TAF

Lufthavner :

Pajala lufthavn

Pajala, Sverige

breddegrad: 67-14-44N, lengdegrad: 023-04-08E, høyde over havet: 165 m

Gjeldene værobservasjon

Denne rapporten ble laget for 19 minutter siden, klokken 06:50 UTC
Vind 11 kt fra Sørvest
Temperatur 11°C
Luftfuktighet 40%
Trykk 1014 hPa
Sikt 10 km eller mer

METAR: ESUP 230650Z AUTO 22011KT 9999 NCD 11/M02 Q1014

Tid: 09:09 (07:09 UTC)


TAF: fraværende

Værobservasjoner og værvarsel for over 4000 flyplasser (METAR- og TAF-rapporter).

Tilgjengelige stasjoner er representert av de røde og gule prikkene på kartet.

Hold musepekeren over prikken for å se navnet på stasjonen.

Klikk så for å se værobservasjoner og -varsler.

For å forandre kartet kan du klikke på den grønne knappen med svart kryss for å zoome inn, på den grønne knappen med strek for å zoome ut, eller på de grønne pilene for å se tilstøtende kart.


METAR-TAF: